This is the latest recevied weather packets stored in our database for station/object DK8RG-15. If no packets are shown the sender has not sent any weather packets the latest 10 day(s).
| Time | Temp. | Humidity | Pressure | Rain* | Wind** | Luminosity | Snow |
|---|---|---|---|---|---|---|---|
| 1778068217 | 17.22° C | 59% | 1002.5 hPa | 0 mm | - | - | - |
| 1778067617 | 17.78° C | 58% | 1002.6 hPa | 0 mm | - | - | - |
| 1778067019 | 17.78° C | 59% | 1002.6 hPa | 0 mm | - | - | - |
| 1778066418 | 17.78° C | 58% | 1002.6 hPa | 0 mm | - | - | - |
| 1778065819 | 17.78° C | 60% | 1002.6 hPa | 0 mm | - | - | - |
| 1778065218 | 17.22° C | 57% | 1002.5 hPa | 0 mm | - | - | - |
| 1778064617 | 17.22° C | 57% | 1002.5 hPa | 0 mm | - | - | - |
| 1778064018 | 17.78° C | 60% | 1002.6 hPa | 0 mm | - | - | - |
| 1778063418 | 17.22° C | 61% | 1002.5 hPa | 0 mm | - | - | - |
| 1778062819 | 16.67° C | 63% | 1002.5 hPa | 0 mm | - | - | - |
| 1778062218 | 16.11° C | 64% | 1002.5 hPa | 0 mm | - | - | - |
| 1778061619 | 16.67° C | 63% | 1002.5 hPa | 0 mm | - | - | - |
| 1778061018 | 16.67° C | 65% | 1002.5 hPa | 0 mm | - | - | - |
| 1778060419 | 15.56° C | 67% | 1002.5 hPa | 0 mm | - | - | - |
| 1778059818 | 15° C | 67% | 1002.4 hPa | 0 mm | - | - | - |
| 1778059229 | 15° C | 67% | 1003.4 hPa | 0 mm | - | - | - |
| 1778058618 | 15° C | 69% | 1002.4 hPa | 0 mm | - | - | - |
| 1778058018 | 15° C | 69% | 1002.4 hPa | 0 mm | - | - | - |
| 1778057419 | 15° C | 69% | 1002.4 hPa | 0 mm | - | - | - |
| 1778056818 | 15° C | 69% | 1002.4 hPa | 0 mm | - | - | - |
| 1778056217 | 15° C | 69% | 1002.4 hPa | 0 mm | - | - | - |
| 1778055619 | 15° C | 68% | 1002.5 hPa | 0 mm | - | - | - |
| 1778055018 | 15° C | 69% | 1002.5 hPa | 0 mm | - | - | - |
| 1778054418 | 15.56° C | 69% | 1002.5 hPa | 0 mm | - | - | - |
| 1778053818 | 16.11° C | 69% | 1001.6 hPa | 0 mm | - | - | - |
* Rain latest hour (hover to see other rain measurements)
** Current wind speed in m/s (hover to see current wind gust speed)